Location: Goettingen
(51.5300°N, 9.9433°E)
Time: 11:04:03
(UTC+02:00)

ISS - Pass Details

Date: 29 March 2017
Orbit: 401 x 409 km, 51.6° (Epoch: 28 April)

Event Time Altitude Azimuth Distance (km) Brightness Sun altitude
Rises 21:30:00 0° 231° (SW) 2,313 0.3 -15.8°
Reaches altitude 10° 21:32:08 10° 223° (SW) 1,458 -0.8 -16.1°
Enters shadow 21:35:06 38° 159° (SSE) 634 -3.3 -16.5°
